Showing default

GAOFEN 9 05, 46232

Orbit data source: Space-Track

GAOFEN 9 05, 46232 is a payload satellite owned by GGKGJ (CN) in SSO that was launched on Sun, 23 Aug 2020 UTC via a CHANG ZHENG 2D launch vehicle from the Jiuquan Satellite Launch Center, China (JSC). Payload-class satellites include a variety of spacecraft equipped with specific instruments for various scientific and technological missions. These include communications satellites like Starlink; space stations such as the ISS; scientific satellites like the Hubble; Earth observation satellites from companies like Planet Labs, Umbra, and HawkEye 360; GPS; miniature CubeSats for education and research; and military/defense satellites.

Loading next visibility...
Identifier
46232, 2020-058A
Orbit
SSO
Country
Flag of CNCN / PRC
Related business
Manufacturer
DFH
Mission
Operational Defense Imaging
Bus & Motor
CAST-3000, AOCS
Mass
~1,700 kg wet, ~1,500 kg dry
Launch date (UTC)
2020-08-23 (5 years ago)
Launch vehicle
CHANG ZHENG 2D
Launch site
Jiuquan Satellite Launch Center, China (JSC)
Object type
Payload
Rocket body
Debris
Shape & HBR
Box + 2 Pan, Unknown HBR
Radar Cross Section
4.991 m², Large (>1 m²)

Expand to show TLE details & history
Last TLE update: 5 hours ago

TLE from 5 hours ago
0 GAOFEN 9 05
1 46232U 20058A   25353.86285639  .00004408  00000-0  15965-3 0  9992
2 46232  97.2356  34.0268 0009633  25.9040 334.2680 15.28854325296180
Epoch: 2025-12-19T20:42Z
TLE epoch observation values (Epoch: 2025-12-19T20:42:30.792Z)
Latitude
-0.00008°
Longitude
-5.29941°
Altitude
476.392 km
Speed
7.631 km/s
True Right ascension
02h 16m 06s
True Declination
0° 00' 00"
Sunlit
Object was in full shadow at epoch
Visualization orbit readout
Latitude
Unknown
Longitude
Unknown
Altitude
Unknown
Speed
Unknown
Apparent Right ascension
Unknown
Apparent Declination
Unknown
Sunlit
N/A
Visualization observer readout
Local Sidereal Time
00:54:55
Azimuth
Unknown
Elevation
Unknown
Doppler factor
Unknown
Orbital elements
Apogee altitude
482.786 km
Perigee altitude
469.58 km
Semi-major axis
6,854.32 km
Eccentricity
0.00096
Inclination
97.2356°
RAAN
34.0268°
Arg. of periapsis
25.904°
True anomaly
334.22002°
Mean anomaly
334.268°
Eccentric anomaly
334.24402°
Mean motion
3.82469 °/min
Orbital period
94.13 mins
BSTAR
0.00015965
Loading maneuver chart data...
Computing Atmospheric mass density...
Loading historical data...
Loading historical data...
Loading historical data...
Loading historical data...
Loading historical data...
Loading historical data...
Loading historical data...
Other satellites on launch #58 in the year 2020 (2020-08-23 UTC)

Documentation

Showing up to 5 results
|